Back to catalog

IRS P2 R/B

AliveSSO
NORAD 23324·ROCKET BODY·🇮🇳 India

Launched Oct 15, 1994 from Satish Dhawan Space Centre

Loading…

Next Passes (next 24 hours)

TLE

FreshSource: Space-Track

Epoch: Sep 14, 2026, 10:46 UTC

1 23324U 94068B   26257.44920775  .00000022  00000-0  32302-4 0  9999
2 23324  98.8381 331.0122 0057330  19.6808 340.6562 14.17421584650188

Track IRS P2 R/B in real time with AllMySat

Download on the App Store